This is the latest recevied weather packets stored in our database for station/object K0SNA. If no packets are shown the sender has not sent any weather packets the latest 10 day(s).
| Time | Temp. | Humidity | Pressure | Rain* | Wind** | Luminosity | Snow |
|---|---|---|---|---|---|---|---|
| 1777682114 | 11.11° C | 33% | 1018.5 hPa | 0 mm | - | 23 W/m² | - |
| 1777681810 | 11.11° C | 34% | 1018.5 hPa | 0 mm | - | 23 W/m² | - |
| 1777681507 | 11.11° C | 34% | 1018.6 hPa | 0 mm | - | 27 W/m² | - |
| 1777681204 | 11.11° C | 33% | 1018.6 hPa | 0 mm | - | 31 W/m² | - |
| 1777680902 | 11.11° C | 34% | 1018.5 hPa | 0 mm | - | 35 W/m² | - |
| 1777680599 | 11.11° C | 34% | 1018.4 hPa | 0 mm | - | 34 W/m² | - |
| 1777680298 | 10.56° C | 34% | 1018.4 hPa | 0 mm | - | 35 W/m² | - |
| 1777679994 | 10.56° C | 35% | 1018.6 hPa | 0 mm | - | 46 W/m² | - |
| 1777679689 | 10.56° C | 36% | 1018.5 hPa | 0 mm | - | 39 W/m² | - |
| 1777679384 | 10.56° C | 35% | 1018.6 hPa | 0 mm | - | 48 W/m² | - |
| 1777679081 | 10.56° C | 35% | 1018.6 hPa | 0 mm | - | 58 W/m² | - |
| 1777678780 | 10.56° C | 34% | 1018.5 hPa | 0 mm | - | 62 W/m² | - |
| 1777678477 | 11.11° C | 34% | 1018.5 hPa | 0 mm | - | 55 W/m² | - |
| 1777678173 | 11.11° C | 33% | 1018.5 hPa | 0 mm | - | 50 W/m² | - |
| 1777677870 | 11.11° C | 34% | 1018.5 hPa | 0 mm | - | 51 W/m² | - |
| 1777677567 | 11.11° C | 33% | 1018.4 hPa | 0 mm | - | 69 W/m² | - |
| 1777677266 | 11.67° C | 33% | 1018.4 hPa | 0 mm | - | 97 W/m² | - |
| 1777676963 | 11.67° C | 32% | 1018.6 hPa | 0 mm | - | 68 W/m² | - |
| 1777676662 | 11.67° C | 33% | 1018.4 hPa | 0 mm | - | 59 W/m² | - |
| 1777676360 | 11.67° C | 33% | 1018.5 hPa | 0 mm | - | 55 W/m² | - |
| 1777676057 | 11.67° C | 32% | 1018.5 hPa | 0 mm | - | 96 W/m² | - |
| 1777675752 | 11.67° C | 33% | 1018.7 hPa | 0 mm | - | 98 W/m² | - |
| 1777675450 | 11.11° C | 32% | 1018.4 hPa | 0 mm | - | 90 W/m² | - |
| 1777675147 | 11.67° C | 32% | 1018.7 hPa | 0 mm | - | 76 W/m² | - |
| 1777674843 | 11.67° C | 32% | 1018.5 hPa | 0 mm | - | 284 W/m² | - |
* Rain latest hour (hover to see other rain measurements)
** Current wind speed in m/s (hover to see current wind gust speed)